Location: Newark
(46.7333°N, 6.6667°E)
Time: 23:39:26
(UTC+00:00)

N. Korean satellite - Pass Details

Date: 23 September 2020
Orbit: 452 x 505 km, 97.2° (Epoch: 29 October)

Event Time Altitude Azimuth Distance (km) Brightness Sun altitude
Rises 04:36:15 0° 21° (NNE) 2,606 10.7 -8.6°
Reaches altitude 10° 04:38:31 10° 32° (NNE) 1,710 9.9 -8.2°
Maximum altitude 04:41:51 31° 96° (E) 881 8.8 -7.7°
Drops below altitude 10° 04:45:05 10° 161° (SSE) 1,672 9.5 -7.1°
Sets 04:47:17 0° 171° (S) 2,537 10.2 -6.7°
